TimeMST,TemperatureF,Dew PointF,Humidity,Sea Level PressureIn,VisibilityMPH,Wind Direction,Wind SpeedMPH,Gust SpeedMPH,PrecipitationIn,Events,Conditions,WindDirDegrees,DateUTC
12:53 AM,32.0,19.9,61,29.63,10.0,NW,8.1,-,N/A,,Clear,320,2012-01-21 07:53:00
1:53 AM,30.9,21.0,67,29.60,10.0,SSW,4.6,-,N/A,,Partly Cloudy,210,2012-01-21 08:53:00
2:53 AM,32.0,21.0,64,29.58,10.0,Calm,Calm,-,N/A,,Overcast,0,2012-01-21 09:53:00
3:53 AM,30.9,21.0,67,29.55,10.0,NW,4.6,-,N/A,,Partly Cloudy,320,2012-01-21 10:53:00
4:53 AM,30.9,21.0,67,29.52,10.0,WNW,5.8,-,N/A,,Mostly Cloudy,290,2012-01-21 11:53:00
5:53 AM,32.0,21.9,66,29.49,10.0,Variable,4.6,-,N/A,,Clear,0,2012-01-21 12:53:00
6:53 AM,32.0,21.9,66,29.48,10.0,Variable,6.9,-,N/A,,Clear,0,2012-01-21 13:53:00
7:53 AM,33.1,23.0,66,29.46,10.0,NNE,9.2,-,N/A,,Scattered Clouds,30,2012-01-21 14:53:00
8:53 AM,44.1,30.9,60,29.43,10.0,SSE,12.7,27.6,0.00,,Overcast,160,2012-01-21 15:53:00
9:53 AM,39.0,30.9,73,29.42,10.0,SE,20.7,27.6,N/A,,Overcast,140,2012-01-21 16:53:00
10:53 AM,41.0,30.0,65,29.37,10.0,SSE,16.1,21.9,N/A,,Mostly Cloudy,160,2012-01-21 17:53:00
11:53 AM,41.0,30.0,65,29.33,10.0,SSE,15.0,-,N/A,,Overcast,150,2012-01-21 18:53:00
12:53 PM,41.0,30.9,67,29.28,10.0,SSE,18.4,27.6,0.00,,Mostly Cloudy,160,2012-01-21 19:53:00
1:53 PM,41.0,30.9,67,29.25,10.0,East,10.4,-,N/A,,Clear,100,2012-01-21 20:53:00
2:53 PM,46.9,30.9,54,29.20,10.0,WSW,6.9,-,N/A,,Partly Cloudy,240,2012-01-21 21:53:00
3:53 PM,43.0,32.0,65,29.22,10.0,North,4.6,-,N/A,,Clear,360,2012-01-21 22:53:00
4:53 PM,41.0,30.9,67,29.24,10.0,WNW,3.5,-,N/A,,Clear,300,2012-01-21 23:53:00
5:53 PM,39.9,30.9,70,29.24,10.0,Variable,4.6,-,N/A,,Overcast,0,2012-01-22 00:53:00
6:53 PM,37.9,30.9,76,29.26,10.0,Calm,Calm,-,N/A,,Overcast,0,2012-01-22 01:53:00
7:53 PM,37.9,30.9,76,29.28,10.0,Variable,4.6,-,N/A,,Overcast,0,2012-01-22 02:53:00
8:37 PM,37.4,32.0,81,29.31,7.0,Calm,Calm,-,0.00,Rain,Light Rain,0,2012-01-22 03:37:00
8:53 PM,37.0,32.0,82,29.28,10.0,WSW,8.1,-,0.00,,Overcast,250,2012-01-22 03:53:00
9:53 PM,37.0,32.0,82,29.32,10.0,West,9.2,-,0.00,Rain,Light Rain,280,2012-01-22 04:53:00
10:53 PM,34.0,32.0,92,29.33,10.0,SE,8.1,-,0.00,,Overcast,140,2012-01-22 05:53:00
11:53 PM,34.0,32.0,92,29.34,10.0,East,5.8,-,N/A,,Overcast,100,2012-01-22 06:53:00